This is the latest recevied weather packets stored in our database for station/object N6SPP. If no packets are shown the sender has not sent any weather packets the latest 10 day(s).
| Time | Temp. | Humidity | Pressure | Rain* | Wind** | Luminosity | Snow |
|---|---|---|---|---|---|---|---|
| 1778176521 | 20.56° C | 60% | 1020.7 hPa | 0 mm | - | 590 W/m² | - |
| 1778176220 | 20.56° C | 62% | 1020.9 hPa | 0 mm | - | 666 W/m² | - |
| 1778175916 | 20.56° C | 62% | 1021 hPa | 0 mm | - | 655 W/m² | - |
| 1778175614 | 20.56° C | 63% | 1020.8 hPa | 0 mm | - | 646 W/m² | - |
| 1778175310 | 20.56° C | 62% | 1021.1 hPa | 0 mm | - | 633 W/m² | - |
| 1778175008 | 20° C | 64% | 1021 hPa | 0 mm | - | 625 W/m² | - |
| 1778174704 | 20° C | 64% | 1020.8 hPa | 0 mm | - | 612 W/m² | - |
| 1778174401 | 20° C | 65% | 1020.9 hPa | 0 mm | - | 598 W/m² | - |
| 1778174096 | 20° C | 65% | 1020.9 hPa | 0 mm | - | 587 W/m² | - |
| 1778173794 | 20° C | 64% | 1020.9 hPa | 0 mm | - | 461 W/m² | - |
| 1778173490 | 19.44° C | 66% | 1021 hPa | 0 mm | - | 563 W/m² | - |
| 1778173187 | 19.44° C | 66% | 1020.9 hPa | 0 mm | - | 551 W/m² | - |
| 1778172883 | 18.89° C | 68% | 1020.8 hPa | 0 mm | - | 539 W/m² | - |
| 1778172579 | 18.89° C | 69% | 1020.9 hPa | 0 mm | - | 521 W/m² | - |
| 1778172276 | 18.33° C | 69% | 1021 hPa | 0 mm | - | 509 W/m² | - |
| 1778171972 | 17.78° C | 71% | 1021.1 hPa | 0 mm | - | 498 W/m² | - |
| 1778171670 | 17.22° C | 72% | 1021 hPa | 0 mm | - | 483 W/m² | - |
| 1778171367 | 17.22° C | 73% | 1020.8 hPa | 0 mm | - | 472 W/m² | - |
| 1778171062 | 16.67° C | 74% | 1020.9 hPa | 0 mm | - | 457 W/m² | - |
| 1778170760 | 16.67° C | 75% | 1021 hPa | 0 mm | - | 441 W/m² | - |
| 1778170455 | 16.67° C | 75% | 1021.1 hPa | 0 mm | - | 426 W/m² | - |
| 1778170153 | 16.67° C | 77% | 1021 hPa | 0 mm | - | 411 W/m² | - |
| 1778169848 | 16.67° C | 76% | 1021 hPa | 0 mm | - | 397 W/m² | - |
| 1778169545 | 16.11° C | 77% | 1021.1 hPa | 0 mm | - | 379 W/m² | - |
| 1778169240 | 16.11° C | 77% | 1020.9 hPa | 0 mm | - | 365 W/m² | - |
* Rain latest hour (hover to see other rain measurements)
** Current wind speed in m/s (hover to see current wind gust speed)